CSN6043 ZGHA-HKJK

Flight info

Callsign CSN6043
Flight time N/A
Altitude 32100
Route OLT9X OLTUS W226 IPMUG W611 BIVAV W138 DYG W140 HUY A581 SGM A599 LINSO/N0500F320 A599 CHILA/N0497F340 A599 CTG B465 CEA J46 JRS W160 OGUNA Z14 OSVAS Q20 OPAKA G450 BBB P751 BISET/N0486F360 P751 ANGAL M634 VEDET UM634 DAROT/N0484F380 UB403 MAV UP312 WAV WAJI1A
Aircraft B77W/H-SDE1E2E3FGHIJ2J3J4J5M1RWXY/LB1D1

Departure

Time 2026-04-22 17:56
Airport Changsha Huanghua International Airport (ZGHA)

Arrival

Time N/A
Airport Jomo Kenyatta International Airport (HKJK)
Time Latitude Longitude Altitude Speed Heading
2026-04-22 17:40 28.18677 113.21604 232 ft 0 kts 311°
2026-04-22 17:47 28.18668 113.21615 232 ft 2 kts 314°
2026-04-22 17:47 28.18658 113.21627 232 ft 2 kts 314°
2026-04-22 17:47 28.18647 113.21639 232 ft 2 kts 313°
2026-04-22 17:47 28.18637 113.21652 232 ft 2 kts 313°
2026-04-22 17:48 28.18630 113.21660 232 ft 2 kts 323°
2026-04-22 17:48 28.18611 113.21667 232 ft 2 kts
2026-04-22 17:48 28.18597 113.21662 232 ft 2 kts 32°
2026-04-22 17:48 28.18586 113.21651 232 ft 2 kts 58°
2026-04-22 17:49 28.18580 113.21635 232 ft 2 kts 85°
2026-04-22 17:49 28.18580 113.21618 232 ft 2 kts 90°
2026-04-22 17:49 28.18580 113.21606 232 ft 0 kts 87°
2026-04-22 17:49 28.18580 113.21603 232 ft 0 kts 86°
2026-04-22 17:51 28.18580 113.21605 232 ft 1 kts 86°
2026-04-22 17:52 28.18583 113.21659 232 ft 9 kts 87°
2026-04-22 17:52 28.18585 113.21724 232 ft 7 kts 87°
2026-04-22 17:52 28.18547 113.21800 232 ft 16 kts 156°
2026-04-22 17:52 28.18413 113.21822 232 ft 19 kts 177°
2026-04-22 17:53 28.18289 113.21828 232 ft 16 kts 177°
2026-04-22 17:53 28.18183 113.21835 232 ft 13 kts 176°
2026-04-22 17:53 28.18094 113.21840 232 ft 11 kts 176°
2026-04-22 17:53 28.18006 113.21845 232 ft 14 kts 177°
2026-04-22 17:54 28.17909 113.21851 232 ft 14 kts 177°
2026-04-22 17:54 28.17805 113.21860 232 ft 15 kts 171°
2026-04-22 17:54 28.17745 113.21948 232 ft 16 kts 93°
2026-04-22 17:54 28.17792 113.22039 232 ft 13 kts 14°
2026-04-22 17:55 28.17855 113.22042 232 ft 16 kts 359°
2026-04-22 17:55 28.18361 113.22009 232 ft 94 kts 356°
2026-04-22 17:55 28.19212 113.21957 232 ft 147 kts 357°
2026-04-22 17:55 28.20409 113.21882 284 ft 187 kts 356°
2026-04-22 17:56 28.21713 113.21793 748 ft 191 kts 356°
2026-04-22 17:56 28.23089 113.21710 1179 ft 206 kts 357°
2026-04-22 17:56 28.24595 113.21625 1628 ft 224 kts 357°
2026-04-22 17:56 28.26243 113.21525 1928 ft 253 kts 356°
2026-04-22 17:57 28.28136 113.21408 1938 ft 295 kts 356°
2026-04-22 17:57 28.30362 113.21270 1933 ft 338 kts 356°
2026-04-22 17:57 28.32833 113.21187 1919 ft 358 kts
2026-04-22 17:57 28.35241 113.21747 1997 ft 360 kts 21°
2026-04-22 17:58 28.37425 113.23177 3004 ft 360 kts 38°
2026-04-22 17:58 28.39114 113.25192 4274 ft 352 kts 54°
2026-04-22 17:58 28.40175 113.27631 5485 ft 344 kts 73°
2026-04-22 17:58 28.40460 113.30231 6619 ft 336 kts 94°
2026-04-22 17:59 28.39923 113.32734 7662 ft 325 kts 117°
2026-04-22 17:59 28.38629 113.34753 8594 ft 313 kts 142°
2026-04-22 17:59 28.36823 113.36008 9410 ft 301 kts 165°
2026-04-22 17:59 28.34775 113.36438 9857 ft 297 kts 187°
2026-04-22 18:00 28.33419 113.36224 10173 ft 293 kts 203°
2026-04-22 18:00 28.30891 113.35226 11238 ft 289 kts 196°
2026-04-22 18:00 28.28912 113.34879 11877 ft 290 kts 199°
2026-04-22 18:00 28.27058 113.33998 12259 ft 291 kts 216°
2026-04-22 18:01 28.25442 113.32672 12867 ft 285 kts 231°
2026-04-22 18:01 28.24322 113.30840 13477 ft 281 kts 247°
2026-04-22 18:01 28.23585 113.28813 14063 ft 281 kts 253°
2026-04-22 18:01 28.23020 113.26680 14644 ft 283 kts 256°
2026-04-22 18:02 28.22545 113.24506 15229 ft 284 kts 258°
2026-04-22 18:02 28.22074 113.22319 15760 ft 287 kts 252°
2026-04-22 18:02 28.21234 113.20252 16145 ft 297 kts 243°
2026-04-22 18:02 28.20190 113.18128 16320 ft 313 kts 242°
2026-04-22 18:03 28.19096 113.15945 16514 ft 329 kts 242°
2026-04-22 18:03 28.17937 113.13624 16712 ft 345 kts 242°
2026-04-22 18:03 28.16728 113.11197 16927 ft 360 kts 242°
2026-04-22 18:03 28.15589 113.08627 17141 ft 374 kts 249°
2026-04-22 18:04 28.14821 113.05750 17489 ft 384 kts 259°
2026-04-22 18:04 28.14400 113.02732 18134 ft 388 kts 262°
2026-04-22 18:04 28.14025 112.99734 18839 ft 389 kts 262°
2026-04-22 18:04 28.13660 112.96677 19527 ft 391 kts 264°
2026-04-22 18:05 28.13604 112.93613 20136 ft 395 kts 272°